weather.gov     
National Weather Service

Regional Weather Roundup
NWS Homepage
This page is being discontinued on March 12, 2014.
The same data is available at this site. Please update your bookmarks.
Thank you, and we apologize for the inconvenience.
Please send an email to SR-SRH.Webmaster@noaa.gov with any concerns.


Current Version
Previous Version:    01  02  03  04  05  06  07  08  09  10  11  12  13  14  15  16  17  18  19  20  21  22  23  24  25  26  
[Printable]
781
ASUS45 KCYS 191710
RWRWY

WYOMING REGIONAL WEATHER ROUNDUP
NATIONAL WEATHER SERVICE CHEYENNE WY
1100 AM MDT SAT APR 19 2014

NOTE:  "FAIR" INDICATES FEW OR NO CLOUDS BELOW 12,000 FEET
WITH NO SIGNIFICANT WEATHER AND/OR OBSTRUCTIONS TO VISIBILITY.

WYZ001-191800-
YELLOWSTONE NATIONAL PARK

CITY           SKY/WX    TMP DP  RH WIND       PRES   REMARKS
LK YELLOWSTONE   N/A     41  11  29 VRB3      30.08F
W YELLOWSTONE  NOT AVBL

$$
WYZ002>013-054>058-071-098>099-191800-
NORTHERN WYOMING

CITY           SKY/WX    TMP DP  RH WIND       PRES   REMARKS
JACKSON        SUNNY     43  25  49 CALM      30.06F
CODY           SUNNY     52  27  37 SE10      29.99F
GREYBULL       MOSUNNY   51  29  42 SE3       30.00F
WORLAND        MOSUNNY   51  30  44 N3        30.00F
SHERIDAN         N/A     52  28  40 W15G22      N/A
BUFFALO        SUNNY     50  22  33 S8        30.03F
GILLETTE       SUNNY     52  17  25 N3        30.05R
HULETT         FAIR      52  21  30 W3        30.04
NEWCASTLE      FAIR      54  14  20 N6        30.04

$$
WYZ014>020-022>026-101>103-191800-
CENTRAL WYOMING

CITY           SKY/WX    TMP DP  RH WIND       PRES   REMARKS
BIG PINEY      MOSUNNY   49   8  19 S6        30.10S
PINEDALE       SUNNY     46  10  23 CALM      30.10S
DUBOIS         FAIR      50   9  18 NW20G30   30.02S
LANDER         MOSUNNY   55  21  26 VRB7      30.00F
RIVERTON       MOSUNNY   53  13  20 VRB5      30.02F
CASPER         MOSUNNY   50  32  50 SE6       30.03F
DOUGLAS        PTSUNNY   50  24  36 SE5       30.06S

$$
WYZ021-027>030-104>119-191800-
SOUTHERN WYOMING

CITY           SKY/WX    TMP DP  RH WIND       PRES   REMARKS
EVANSTON       CLOUDY    51  30  44 W8        30.10R
KEMMERER       CLOUDY    52  14  22 CALM      30.11R
FORT BRIDGER   PTSUNNY   51  21  30 N3        30.12S
ROCK SPRINGS   MOSUNNY   54  22  28 W7        30.09S
DIXON          FAIR      57  35  44 S12G17    30.13R
RAWLINS        MOSUNNY   56  23  27 W8G16     30.09S
SARATOGA       CLOUDY    55  32  41 SE8       30.11S
LARAMIE        CLOUDY    51  30  44 S14       30.10R
CHEYENNE       CLOUDY    54  36  50 N9        30.07F
TORRINGTON     CLOUDY    52  35  52 MISG      30.06R
PINE BLUFFS    CLOUDY    50  36  57 NE9       30.08S

$$




U.S. Dept. of Commerce
NOAA National Weather Service
1325 East West Highway
Silver Spring, MD 20910
E-mail: w-nws.webmaster@noaa.gov
Page last modified: May 16, 2007
NATIONAL WEATHER SERVICE: for Safety, for Work, for Fun - FOR LIFE